Flag for South Africa Weather past 2 weeks in Pretoria, South Africa

Now
41 °F

Quite cool.


Feels Like: 41 °F
Forecast: 35 / 65 °F
Wind: No wind

Location: Waterkloof Lmb

Current Time: Aug 1, 2015 at 11:17:49 PM

Latest Report: Aug 1, 2015 at 10:00 PM


Visibility: N/A

Pressure: 30.48 "Hg (25.86 "Hg at 1338m altitude)

Humidity: 36%

Dew point: 16 °F

Location of PretoriaLocation

Historic Weather in Pretoria — Graph

°F

Pretoria temperature yesterday

Maximum temperature yesterday: 59 °F (at 3:00 PM)
Minimum temperature yesterday: 36 °F (at 3:00 AM)
Average temperature yesterday: 46 °F

Past Weeks' High & Low Weather Summary

 TemperatureHumidityPressure
High73 °F (Jul 30, 2:00 PM)100% (Jul 26, 7:00 AM)30.51 "Hg (Jul 26, 7:00 AM)
Low28 °F (Aug 1, 6:00 AM)5% (Aug 1, 2:00 PM)30.09 "Hg (Jul 24, 2:00 PM)
Average52 °F45%30.28 "Hg
* Reported Jul 17 10:00 PM — Aug 1 10:00 PM, Pretoria, Weather by CustomWeather, © 2015

Note: Actual official high and low records may vary slightly from our data, if they occured in-between our weather recording intervals... More about our weather records

Advertising

Pretoria weather history for previous 24 hours

 ConditionsComfort  
Time TempWeatherWind HumidityBarometerVisibility
10:00 PM
Sat, Aug 1
41 °FQuite cool.No wind36%30.48 "HgN/A
9:00 PM43 °FQuite cool.1 mph31%30.48 "HgN/A
8:00 PM45 °FQuite cool.3 mph31%30.48 "HgN/A
6:00 PM52 °FCool.7 mph17%30.42 "HgN/A
5:00 PM63 °FMild.3 mph8%30.42 "HgN/A
4:00 PM66 °FMild.3 mph6%30.39 "HgN/A
3:00 PM64 °FMild.3 mph7%30.42 "HgN/A
2:00 PM64 °FMild.5 mph5%30.42 "HgN/A
1:00 PM61 °FRefreshingly cool.3 mph6%30.45 "HgN/A
12:00 PM61 °FRefreshingly cool.3 mph10%30.48 "HgN/A
11:00 AM57 °FRefreshingly cool.3 mph12%30.48 "HgN/A
10:00 AM54 °FCool.5 mph19%30.51 "HgN/A
9:00 AM48 °FCool.7 mph25%30.48 "HgN/A
8:00 AM41 °FQuite cool.7 mph36%30.45 "HgN/A
7:00 AM32 °FChilly.7 mph55%30.45 "HgN/A
6:00 AM28 °FChilly.5 mph64%30.42 "HgN/A
5:00 AM32 °FChilly.3 mph55%30.39 "HgN/A
3:00 AM32 °FChilly.5 mph55%30.39 "HgN/A
2:00 AM32 °FChilly.2 mph51%30.39 "HgN/A
1:00 AM34 °FChilly.3 mph51%30.42 "HgN/A
12:00 AM37 °FChilly.6 mph45%30.39 "HgN/A
11:00 PM
Fri, Jul 31
36 °FChilly.6 mph48%30.39 "HgN/A
Weather by CustomWeather, © 2015

See weather overviewHow to use our weather pages